GW6671 Weather Reports


time (UTC)temp
C
wind
direction
speed
KPH
gust
KPH
rain 1hr
cm
rain 24hr
cm
rain mn
cm
humidity
%
barometer
mb
20260503060109 11 312 3.2 8.0 0.00 0.00 0.00 58 1015.2
20260503055034 10 295 3.2 11.3 0.00 0.00 0.00 58 1015.1
20260503054550 10 297 3.2 11.3 0.00 0.00 0.00 56 1015.2
20260503054036 10 303 4.8 8.0 0.00 0.00 0.00 60 1015.1
20260503053533 10 291 3.2 6.4 0.00 0.00 0.00 60 1015.1
20260503053044 10 321 4.8 8.0 0.00 0.00 0.00 57 1015.2
20260503052534 10 307 3.2 8.0 0.00 0.00 0.00 59 1015.1
20260503052034 10 313 4.8 8.0 0.00 0.00 0.00 58 1015.1
20260503051540 10 290 3.2 4.8 0.00 0.00 0.00 65 1015.1
20260503051033 11 360 3.2 4.8 0.00 0.00 0.00 59 1015.1
20260503050532 12 360 3.2 8.0 0.00 0.00 0.00 53 1015.1
20260503050040 12 360 3.2 8.0 0.00 0.00 0.00 51 1015.1
20260503045534 12 17 3.2 6.4 0.00 0.00 0.00 52 1015.2
20260503045034 11 323 3.2 6.4 0.00 0.00 0.00 53 1015.1
20260503044545 11 294 1.6 6.4 0.00 0.00 0.00 59 1015.0
20260503044036 11 294 1.6 6.4 0.00 0.00 0.00 61 1014.9
20260503043533 11 294 3.2 6.4 0.00 0.00 0.00 54 1014.9
20260503043050 12 299 4.8 8.0 0.00 0.00 0.00 54 1014.9
20260503042535 12 301 4.8 9.7 0.00 0.00 0.00 51 1014.9
20260503042033 13 297 6.4 9.7 0.00 0.00 0.00 51 1014.9
20260503041543 15 323 1.6 6.4 0.00 0.00 0.00 37 1014.8
20260503041034 16 0 0.0 8.0 0.00 0.00 0.00 37 1014.7
20260503040533 16 17 4.8 8.0 0.00 0.00 0.00 33 1014.6
20260503040054 16 9 6.4 8.0 0.00 0.00 0.00 32 1014.6
20260503035533 16 12 3.2 6.4 0.00 0.00 0.00 33 1014.5
20260503035034 16 320 0.0 3.2 0.00 0.00 0.00 44 1014.5
20260503034544 16 308 1.6 3.2 0.00 0.00 0.00 34 1014.3
20260503034034 16 315 0.0 1.6 0.00 0.00 0.00 33 1014.5
20260503033532 16 0 0.0 1.6 0.00 0.00 0.00 34 1014.3
20260503033038 16 0 0.0 3.2 0.00 0.00 0.00 36 1014.3
20260503032533 16 0 0.0 6.4 0.00 0.00 0.00 40 1014.2
20260503032033 16 0 3.2 6.4 0.00 0.00 0.00 41 1014.2
20260503031545 16 0 0.0 4.8 0.00 0.00 0.00 41 1014.0
20260503031035 17 0 1.6 6.4 0.00 0.00 0.00 34 1014.0
20260503030534 15 263 3.2 6.4 0.00 0.00 0.00 35 1014.0
20260503030037 15 263 3.2 6.4 0.00 0.00 0.00 48 1013.9
20260503025533 14 266 3.2 6.4 0.00 0.00 0.00 53 1013.9
20260503025033 15 0 3.2 8.0 0.00 0.00 0.00 54 1013.9
20260503024544 16 322 3.2 9.7 0.00 0.00 0.00 44 1013.8
20260503024034 17 341 4.8 12.9 0.00 0.00 0.00 35 1013.8
20260503023532 17 331 6.4 14.5 0.00 0.00 0.00 33 1013.7
20260503023052 17 331 9.7 16.1 0.00 0.00 0.00 33 1013.6
20260503022533 17 328 11.3 16.1 0.00 0.00 0.00 33 1013.6
20260503022031 17 301 8.0 12.9 0.00 0.00 0.00 36 1013.7
20260503021550 17 283 4.8 9.7 0.00 0.00 0.00 37 1013.7
20260503021034 18 232 1.6 11.3 0.00 0.00 0.00 32 1013.7
20260503020531 18 232 4.8 11.3 0.00 0.00 0.00 31 1013.7
20260503020047 17 232 4.8 11.3 0.00 0.00 0.00 35 1013.7
20260503015532 18 258 3.2 11.3 0.00 0.00 0.00 36 1013.7
20260503015033 17 234 4.8 11.3 0.00 0.00 0.00 36 1013.6
20260503014544 17 240 3.2 6.4 0.00 0.00 0.00 39 1013.7
20260503014033 17 242 4.8 12.9 0.00 0.00 0.00 40 1013.6
20260503013533 17 247 4.8 12.9 0.00 0.00 0.00 43 1013.7
20260503013037 18 239 4.8 14.5 0.00 0.00 0.00 39 1013.7
20260503012536 18 240 4.8 14.5 0.00 0.00 0.00 33 1013.8
20260503012034 18 250 4.8 8.0 0.00 0.00 0.00 33 1013.7
20260503011546 18 235 4.8 11.3 0.00 0.00 0.00 34 1013.8
20260503011034 19 236 6.4 11.3 0.00 0.00 0.00 30 1013.8
20260503010532 19 233 8.0 14.5 0.00 0.00 0.00 29 1013.8
20260503010044 19 228 6.4 19.3 0.00 0.00 0.00 31 1013.7
20260503005533 20 244 8.0 19.3 0.00 0.00 0.00 30 1013.7
20260503005035 21 227 11.3 19.3 0.00 0.00 0.00 23 1013.6
20260503004610 21 232 12.9 17.7 0.00 0.00 0.00 21 1013.7
20260503004030 21 215 11.3 17.7 0.00 0.00 0.00 25 1013.7
20260503003533 21 233 9.7 24.1 0.00 0.00 0.00 24 1013.6
20260503003056 21 221 11.3 24.1 0.00 0.00 0.00 25 1013.6
20260503002535 21 230 14.5 27.4 0.00 0.00 0.00 21 1013.5
20260503002035 21 228 19.3 27.4 0.00 0.00 0.00 24 1013.6
20260503001601 21 228 17.7 24.1 0.00 0.00 0.00 25 1013.5
20260503001036 21 233 17.7 24.1 0.00 0.00 0.00 25 1013.5
20260503000533 21 231 11.3 27.4 0.00 0.00 0.00 24 1013.5
20260503000040 22 197 16.1 27.4 0.00 0.00 0.00 23 1013.4
20260502235533 21 195 9.7 25.7 0.00 0.00 0.00 28 1013.5
20260502235031 22 197 9.7 25.7 0.00 0.00 0.00 24 1013.5
20260502234544 22 187 3.2 6.4 0.00 0.00 0.00 35 1013.5
20260502234031 22 192 3.2 16.1 0.00 0.00 0.00 31 1013.5
20260502233532 22 190 3.2 16.1 0.00 0.00 0.00 26 1013.6
20260502233044 21 178 9.7 19.3 0.00 0.00 0.00 21 1013.7
20260502232533 21 178 11.3 19.3 0.00 0.00 0.00 27 1013.7
20260502232031 22 180 12.9 17.7 0.00 0.00 0.00 28 1013.7
20260502231540 22 211 12.9 19.3 0.00 0.00 0.00 22 1013.7
20260502231036 22 231 11.3 27.4 0.00 0.00 0.00 22 1013.7
20260502230534 23 194 9.7 27.4 0.00 0.00 0.00 25 1013.7
20260502230039 23 220 14.5 27.4 0.00 0.00 0.00 24 1013.7
20260502225536 23 219 3.2 19.3 0.00 0.00 0.00 22 1013.8
20260502225034 23 222 8.0 19.3 0.00 0.00 0.00 25 1013.8
20260502224543 23 194 6.4 14.5 0.00 0.00 0.00 24 1013.9
20260502224033 23 205 6.4 16.1 0.00 0.00 0.00 29 1013.9
20260502223533 22 194 6.4 16.1 0.00 0.00 0.00 27 1013.9
20260502223047 22 183 8.0 16.1 0.00 0.00 0.00 23 1014.0
20260502222534 23 130 9.7 16.1 0.00 0.00 0.00 30 1014.0
20260502222033 23 249 6.4 14.5 0.00 0.00 0.00 20 1014.0
20260502221543 22 152 6.4 16.1 0.00 0.00 0.00 30 1014.1
20260502221033 22 176 6.4 24.1 0.00 0.00 0.00 27 1014.1
20260502220533 22 155 11.3 24.1 0.00 0.00 0.00 27 1014.1
20260502220046 22 145 14.5 22.5 0.00 0.00 0.00 28 1014.2
20260502215530 22 147 8.0 17.7 0.00 0.00 0.00 30 1014.2
20260502215030 22 118 11.3 22.5 0.00 0.00 0.00 28 1014.3
20260502214547 22 155 12.9 22.5 0.00 0.00 0.00 28 1014.2
20260502214031 23 130 4.8 19.3 0.00 0.00 0.00 26 1014.3
20260502213531 23 117 11.3 19.3 0.00 0.00 0.00 20 1014.3
20260502213101 22 174 9.7 27.4 0.00 0.00 0.00 23 1014.4
20260502212532 22 161 16.1 27.4 0.00 0.00 0.00 34 1014.3
20260502212034 23 117 14.5 27.4 0.00 0.00 0.00 24 1014.3
20260502211544 23 119 12.9 22.5 0.00 0.00 0.00 27 1014.5
20260502211031 23 113 14.5 25.7 0.00 0.00 0.00 26 1014.7
20260502210530 23 148 12.9 25.7 0.00 0.00 0.00 26 1014.5
20260502210043 23 119 6.4 29.0 0.00 0.00 0.00 27 1014.7
20260502205531 23 164 14.5 29.0 0.00 0.00 0.00 25 1014.9
20260502205031 23 122 9.7 19.3 0.00 0.00 0.00 29 1014.9
20260502204546 23 62 8.0 20.9 0.00 0.00 0.00 20 1015.1
20260502204032 23 75 4.8 25.7 0.00 0.00 0.00 23 1015.1
20260502203530 22 148 12.9 25.7 0.00 0.00 0.00 26 1015.2
20260502203045 23 155 6.4 19.3 0.00 0.00 0.00 27 1015.2
20260502202531 22 197 9.7 24.1 0.00 0.00 0.00 18 1015.2
20260502202034 22 184 8.0 24.1 0.00 0.00 0.00 25 1015.2
20260502201541 22 143 17.7 22.5 0.00 0.00 0.00 23 1015.2
20260502201032 22 147 8.0 22.5 0.00 0.00 0.00 23 1015.4
20260502200532 22 111 12.9 22.5 0.00 0.00 0.00 23 1015.4
20260502200107 22 142 12.9 25.7 0.00 0.00 0.00 22 1015.4
20260502195531 22 113 14.5 25.7 0.00 0.00 0.00 25 1015.4
20260502195034 22 126 14.5 25.7 0.00 0.00 0.00 27 1015.5
20260502194549 23 148 9.7 17.7 0.00 0.00 0.00 21 1015.5
20260502194032 22 93 9.7 19.3 0.00 0.00 0.00 23 1015.6
20260502193535 22 132 8.0 19.3 0.00 0.00 0.00 18 1015.7
20260502193037 22 148 1.6 17.7 0.00 0.00 0.00 20 1015.7
20260502192530 21 103 8.0 20.9 0.00 0.00 0.00 21 1015.8
20260502192031 21 157 9.7 20.9 0.00 0.00 0.00 26 1015.8
20260502191549 22 138 6.4 16.1 0.00 0.00 0.00 27 1015.9
20260502191032 22 138 11.3 16.1 0.00 0.00 0.00 27 1015.9
20260502190531 22 109 4.8 17.7 0.00 0.00 0.00 25 1015.9
20260502190046 21 184 8.0 17.7 0.00 0.00 0.00 19 1016.0
20260502185530 21 155 11.3 17.7 0.00 0.00 0.00 27 1016.0
20260502185032 21 138 6.4 11.3 0.00 0.00 0.00 22 1016.1
20260502184540 21 124 6.4 12.9 0.00 0.00 0.00 24 1016.2
20260502184035 21 147 6.4 14.5 0.00 0.00 0.00 34 1016.2
20260502183531 21 169 3.2 14.5 0.00 0.00 0.00 23 1016.2
20260502183045 21 165 8.0 17.7 0.00 0.00 0.00 28 1016.4
20260502182532 21 123 11.3 17.7 0.00 0.00 0.00 26 1016.5
20260502182033 20 154 6.4 17.7 0.00 0.00 0.00 27 1016.4
20260502181545 20 171 6.4 17.7 0.00 0.00 0.00 27 1016.5
20260502181031 20 127 11.3 17.7 0.00 0.00 0.00 29 1016.6
20260502180531 20 121 6.4 12.9 0.00 0.00 0.00 27 1016.5
20260502164034 18 133 4.8 12.9 0.00 0.00 0.00 36 1016.8
20260502163534 18 137 8.0 12.9 0.00 0.00 0.00 32 1016.7
20260502163052 18 123 4.8 11.3 0.00 0.00 0.00 30 1016.7
20260502162534 18 129 4.8 11.3 0.00 0.00 0.00 23 1016.7
20260502162034 17 110 6.4 11.3 0.00 0.00 0.00 23 1016.7
20260502161547 17 121 1.6 6.4 0.00 0.00 0.00 25 1016.7
20260502161033 17 121 1.6 8.0 0.00 0.00 0.00 27 1016.8
20260502160533 17 128 3.2 8.0 0.00 0.00 0.00 28 1016.8
20260502152033 16 218 1.6 4.8 0.00 0.00 0.00 50 1016.5
20260502151543 15 257 1.6 4.8 0.00 0.00 0.00 50 1016.5
20260502151033 15 257 1.6 4.8 0.00 0.00 0.00 50 1016.5
20260502150529 15 0 0.0 3.2 0.00 0.00 0.00 38 1016.5
20260502150114 14 0 0.0 3.2 0.00 0.00 0.00 41 1016.5
20260502130532 3 336 0.0 4.8 0.00 0.00 0.00 67 1016.1
20260502123533 3 355 3.2 8.0 0.00 0.00 0.00 60 1016.0
20260502123038 5 5 4.8 6.4 0.00 0.00 0.00 55 1016.0
20260502122532 5 205 0.0 8.0 0.00 0.00 0.00 53 1016.0
20260502122032 5 0 1.6 8.0 0.00 0.00 0.00 51 1016.0
20260502121537 5 304 4.8 8.0 0.00 0.00 0.00 53 1016.0
20260502121035 5 304 3.2 6.4 0.00 0.00 0.00 52 1015.9
20260502120533 4 304 0.0 6.4 0.00 0.00 0.00 57 1016.0
20260502115533 4 313 4.8 6.4 0.00 0.00 0.00 54 1016.1
20260502115032 4 311 1.6 3.2 0.00 0.00 0.00 59 1016.1
20260502114543 3 311 0.0 8.0 0.00 0.00 0.00 61 1016.2
20260502114033 3 0 3.2 8.0 0.00 0.00 0.00 67 1016.2
20260502113533 3 320 3.2 6.4 0.00 0.00 0.00 62 1016.2
20260502113054 3 314 1.6 6.4 0.00 0.00 0.00 64 1016.2
20260502112532 3 314 3.2 6.4 0.00 0.00 0.00 69 1016.1
20260502112036 3 329 3.2 6.4 0.00 0.00 0.00 65 1016.2
20260502111543 3 336 0.0 6.4 0.00 0.00 0.00 66 1016.2
20260502111034 3 336 3.2 6.4 0.00 0.00 0.00 68 1016.3
20260502110537 3 332 1.6 4.8 0.00 0.00 0.00 64 1016.2
20260502110037 4 332 1.6 6.4 0.00 0.00 0.00 60 1016.3
20260502105533 3 332 1.6 6.4 0.00 0.00 0.00 59 1016.3
20260502105034 3 332 4.8 6.4 0.00 0.00 0.00 61 1016.3
20260502104546 4 345 1.6 3.2 0.00 0.00 0.00 57 1016.3
20260502104032 4 0 0.0 3.2 0.00 0.00 0.00 57 1016.4
20260502103532 3 345 1.6 3.2 0.00 0.00 0.00 62 1016.4
20260502103059 3 0 0.0 3.2 0.00 0.00 0.00 68 1016.4
20260502102533 3 345 0.0 3.2 0.00 0.00 0.00 65 1016.4
20260502102033 3 345 1.6 6.4 0.00 0.00 0.00 68 1016.4
20260502101550 2 345 1.6 6.4 0.00 0.00 0.00 68 1016.3
20260502101034 3 345 3.2 6.4 0.00 0.00 0.00 64 1016.4
20260502100534 3 345 3.2 6.4 0.00 0.00 0.00 69 1016.4
20260502091033 2 0 1.6 4.8 0.00 0.00 0.00 68 1016.5
20260502090532 3 344 1.6 4.8 0.00 0.00 0.00 67 1016.5
20260502071035 4 328 6.4 9.7 0.00 0.00 0.00 62 1017.0
20260502070531 4 333 3.2 6.4 0.00 0.00 0.00 64 1017.1
20260502070040 4 350 3.2 6.4 0.00 0.00 0.00 62 1017.1
20260502065534 4 350 3.2 6.4 0.00 0.00 0.00 70 1017.0
20260502065034 5 329 3.2 6.4 0.00 0.00 0.00 67 1016.9
20260502064546 5 294 3.2 4.8 0.00 0.00 0.00 67 1016.8
20260502064033 5 0 0.0 6.4 0.00 0.00 0.00 70 1016.9
20260502063534 4 287 4.8 8.0 0.00 0.00 0.00 70 1017.0
20260502063054 4 289 3.2 8.0 0.00 0.00 0.00 69 1016.9
20260502062534 4 296 6.4 8.0 0.00 0.00 0.00 66 1016.9
20260502062034 4 296 3.2 4.8 0.00 0.00 0.00 69 1017.1
20260502061539 4 296 1.6 3.2 0.00 0.00 0.00 68 1017.1
20260502061036 4 0 0.0 4.8 0.00 0.00 0.00 67 1016.9
20260502060536 4 0 1.6 4.8 0.00 0.00 0.00 65 1016.9